Location: Sihaung
(22.8641°N, 94.0549°E)
Time: 01:01:23
(UTC+00:00)

SME Rocket - Pass Details

Date: 03 March 2021
Orbit: 550 x 2652 km, 99.9° (Epoch: 12 April)

Event Time Altitude Azimuth Distance (km) Brightness Sun altitude
Rises 13:20:54 0° 12° (NNE) 4,145 7.2 -22.2°
Reaches altitude 10° 13:23:59 10° 11° (NNE) 2,879 6.4 -22.9°
Maximum altitude 13:30:05 80° 285° (WNW) 793 3.5 -24.3°
Drops below altitude 10° 13:34:20 10° 198° (SSW) 2,024 5.8 -25.3°
Sets 13:36:12 0° 197° (SSW) 2,828 6.6 -25.7°
